DECAYED
Showing default

SHIELDS 1, 43850 (Decayed)

Orbit data source: Space-Track

SHIELDS 1, 43850 was a payload satellite owned by NASA LaRC (US) in LEO that was launched on Sun, 16 Dec 2018 UTC via an ELECTRON launch vehicle from the Rocket Lab Launch Complex (RLLC). Payload-class satellites include a variety of spacecraft equipped with specific instruments for various scientific and technological missions. These include communications satellites like Starlink; space stations such as the ISS; scientific satellites like the Hubble; Earth observation satellites from companies like Planet Labs, Umbra, and HawkEye 360; GPS; miniature CubeSats for education and research; and military/defense satellites.

Not visible in the next 10 days
Identifier
43850, 2018-104B
Orbit
Decayed
Country
Flag of USUS
Related business
Manufacturer
NASA LaRC
Mission
Decayed Civil Technology
Bus & Motor
CUBESAT 3U, Unknown motor
Mass
6.93 kg wet, 6.93 kg dry
Launch date (UTC)
2018-12-16 (7 years ago)
Launch vehicle
ELECTRON
Launch site
Rocket Lab Launch Complex (RLLC)
Object type
Payload
Rocket body
Debris
Shape & HBR
Box + 2 Pan, 0.1 m
Radar Cross Section
0.035 m², Small (<0.1 m²)

Expand to show TLE details & history
Last TLE update: 1 month ago

TLE from 1 month ago
0 SHIELDS 1
1 43850U 18104B   26043.80785543  .11914064 -15394-5  10587-3 0  9997
2 43850  84.9803 217.3496 0008922 267.8516  92.1774 16.51668686400571
Epoch: 2026-02-12T19:23Z
TLE epoch observation values (Epoch: 2026-02-12T19:23:18.709Z)
Latitude
0.00001°
Longitude
143.66734°
Altitude
138.498 km
Speed
7.823 km/s
True Right ascension
14h 29m 23s
True Declination
0° 00' 00"
Sunlit
Object was in full shadow at epoch
Visualization orbit readout
Latitude
Unknown
Longitude
Unknown
Altitude
Unknown
Speed
Unknown
Apparent Right ascension
Unknown
Apparent Declination
Unknown
Sunlit
N/A
Visualization observer readout
Local Sidereal Time
18:13:27
Azimuth
Unknown
Elevation
Unknown
Doppler factor
Unknown
Orbital elements
Apogee altitude
137.455 km
Perigee altitude
125.839 km
Semi-major axis
6,509.784 km
Eccentricity
0.00089
Inclination
84.9803°
RAAN
217.3496°
Arg. of periapsis
267.8516°
True anomaly
92.27956°
Mean anomaly
92.1774°
Eccentric anomaly
92.22848°
Mean motion
4.13231 °/min
Orbital period
87.12 mins
BSTAR
0.00010587
Loading maneuver chart data...
Computing Atmospheric mass density...

Documentation

Showing up to 5 results
|